Dewpoint
22 25 25 24 22 21 21 23 20 22 24 26 27 27 25 26 27 24 23 24 26 25 24 23 24 26 25 27 27 28 28 28 29 29 30 30 29 31 31 32 32 31 30 29
18 23 23 21 24 23 24 25 27 27 25 27 29 25 24 23 23 22 22 23 25 23 23 23 24 25 25 25 27 28 27 26 27 27 27 27 27 29 28 30 30 29 28 27
18 24 22 18 23 23 25 27 26 25 27 27 26 22 22 21 21 21 22 22 24 22 22 23 24 24 23 25 26 27 27 27 27 26 25 24 23 24 23 26 26 25 25 25
24 22 17 23 30 28 25 27 28 26 26 27 24 23 22 22 21 21 21 21 24 24 22 24 23 23 23 25 25 26 26 26 27 25 24 23 22 22 21 22 22 22 22 23
24 23 25 27 27 26 24 24 27 24 26 24 24 24 21 21 21 21 21 21 22 23 22 25 23 23 23 24 24 25 25 26 26 28 23 22 21 21 21 20 21 20 21 21
24 23 19 24 28 28 24 18 27 26 25 25 26 24 22 21 21 21 21 21 21 21 23 22 22 22 22 23 23 24 25 25 25 27 24 22 21 20 20 20 20 19 20 20
22 22 23 27 27 25 18 18 26 26 25 24 23 24 22 21 21 20 20 21 22 21 22 21 21 21 20 22 23 24 23 24 24 24 27 23 21 19 19 18 19 19 19 19
23 22 20 28 27 22 24 28 26 26 25 24 24 23 22 21 21 21 20 20 21 20 21 20 20 20 20 21 24 21 22 22 22 22 24 25 21 19 17 18 17 18 17 17
25 23 28 30 29 29 28 26 26 25 25 25 25 22 22 21 22 21 19 19 20 20 20 18 18 19 19 21 23 20 21 21 21 21 21 24 20 18 16 17 17 17 16 16
25 26 27 28 27 27 27 25 25 25 26 22 21 22 22 21 22 20 18 18 18 19 16 15 17 18 19 21 21 19 21 19 20 20 20 19 22 19 16 16 16 16 16 15
26 26 26 26 26 26 25 23 21 22 23 21 19 18 20 19 19 19 18 17 18 18 17 15 16 17 18 20 21 19 20 18 18 18 19 18 18 21 15 15 15 15 17 15
24 27 25 26 25 24 22 21 20 19 19 19 18 16 16 16 16 18 18 17 16 16 15 15 16 16 17 19 22 18 18 18 18 17 16 17 16 15 16 14 13 13 13 14
26 28 27 27 26 25 23 23 21 19 18 18 17 16 15 16 16 17 17 15 14 14 14 14 14 14 15 17 20 17 16 17 16 16 14 14 15 14 13 13 12 12 11 11
29 28 26 26 25 26 24 23 22 20 19 18 16 16 16 16 15 15 15 15 14 13 14 15 15 14 15 16 17 17 15 15 14 14 14 13 13 13 13 12 10 10 10 10
28 28 27 27 25 23 21 20 19 18 18 16 16 15 15 14 14 14 14 15 14 13 13 13 13 12 14 15 16 16 16 15 14 14 15 14 14 13 13 12 12 11 9 9
29 27 27 26 24 22 21 20 19 18 17 16 15 15 15 15 15 14 12 12 11 11 11 11 11 11 12 12 15 15 15 14 15 15 14 14 14 13 13 12 11 11 10 9
27 26 26 26 25 23 21 21 20 19 17 15 15 15 15 15 15 15 15 13 12 11 10 10 9 9 10 11 15 14 14 13 14 14 14 13 13 12 12 12 11 10 11 10
28 28 27 26 25 23 23 21 20 19 17 16 16 15 14 14 14 13 13 14 12 11 11 10 8 8 8 13 15 15 14 14 14 14 13 12 11 11 10 9 10 10 9 9
28 27 26 25 24 23 22 21 20 18 16 13 12 13 12 12 12 11 9 10 11 12 10 9 10 7 10 13 14 14 13 12 12 12 12 11 9 8 9 9 7 7 8 7
27 27 26 25 24 22 20 18 16 14 12 11 9 10 11 10 9 9 9 11 10 9 8 10 7 3 11 12 12 13 11 11 11 10 10 9 8 5 6 8 7 5 6 7
26 26 25 24 21 18 17 15 13 12 10 8 8 8 9 9 7 8 10 12 13 9 9 10 6 4 10 11 13 11 10 10 10 8 8 8 7 8 5 5 6 6 5 5
22 22 21 19 17 15 14 13 13 11 9 7 5 5 4 5 6 6 8 12 14 10 10 10 3 2 7 10 13 10 10 10 10 9 8 8 7 7 7 5 4 3 5 4
19 19 17 16 16 15 13 12 11 10 9 7 6 6 6 7 7 5 2 6 12 8 11 7 1 -2 5 7 11 8 10 8 5 4 7 7 7 6 6 5 5 3 5 5
17 17 16 15 15 15 14 13 11 10 8 7 9 8 9 8 9 13 14 14 10 9 11 8 3 1 2 5 11 9 6 9 7 4 6 4 5 5 6 4 4 5 5 5
18 16 15 15 15 15 14 13 12 11 10 10 11 10 9 10 11 14 13 11 9 6 9 9 7 5 3 3 8 11 8 7 8 7 7 7 5 7 6 5 3 4 4 4
19 18 17 16 16 15 15 14 14 13 13 12 12 12 10 11 12 13 13 8 7 6 6 5 8 7 6 5 7 11 8 8 9 10 10 8 4 4 5 7 4 3 2 1
19 18 17 17 17 17 17 16 15 14 15 13 12 13 13 11 10 10 12 10 10 10 9 7 8 9 9 9 9 9 8 5 7 8 9 8 6 5 6 7 6 5 3 2
Wind_Speed
5 5 5 11 19 14 9 8 8 6 8 10 8 9 8 5 3 6 9 12 11 13 15 19 21 22 22 22 24 25 25 26 27 26 22 22 25 24 24 22 23 23 25 28
10 11 11 8 12 13 8 8 7 9 5 8 4 15 9 8 9 9 9 10 11 14 16 18 20 21 22 23 23 23 23 25 25 26 25 25 25 25 27 27 28 28 27 25
8 13 8 5 14 15 7 5 9 11 6 10 10 11 9 10 11 8 6 9 11 13 14 17 19 19 21 22 21 22 22 23 25 26 27 27 26 28 29 28 27 28 26 25
6 11 10 1 1 6 14 6 12 14 11 6 15 12 11 12 11 7 6 8 9 9 12 15 17 18 19 19 20 20 22 23 23 24 24 25 26 26 27 26 28 28 26 26
8 8 2 3 6 10 10 9 11 15 13 21 18 15 12 11 11 8 7 6 7 9 11 13 16 17 18 18 20 21 23 22 23 20 23 24 25 22 21 20 19 20 22 25
5 4 10 1 11 11 8 7 15 13 15 17 15 10 7 10 11 9 7 7 8 9 10 13 16 16 16 18 19 20 21 21 21 21 20 21 22 21 18 18 18 17 21 29
4 2 1 7 16 10 5 5 13 14 15 9 5 3 15 14 11 10 8 9 8 9 11 12 13 15 16 16 20 19 19 19 20 20 15 19 16 17 15 15 16 22 25 25
5 3 8 15 11 8 8 11 17 16 13 14 12 20 17 14 12 11 10 9 8 10 11 12 13 14 15 17 17 18 19 18 20 19 17 12 16 19 22 24 28 28 26 26
3 5 1 1 4 12 14 18 11 17 14 13 15 18 16 13 12 11 11 10 9 11 11 12 13 13 14 16 15 17 18 19 20 20 20 17 18 21 24 24 22 21 22 23
6 4 9 16 14 13 17 16 15 13 15 14 18 18 16 14 13 12 11 11 11 12 13 14 14 14 13 14 14 13 14 17 17 17 20 20 11 15 20 21 21 23 24 23
8 10 13 9 13 16 17 19 19 16 14 17 21 16 17 14 13 12 11 10 12 11 11 13 12 13 14 15 12 13 13 14 14 14 16 17 17 16 21 22 23 19 19 18
9 21 6 18 17 19 20 19 18 21 16 14 20 18 17 15 13 13 11 9 10 10 10 11 11 12 14 14 14 13 13 14 14 13 13 13 14 15 20 24 28 30 29 24
7 22 13 22 20 16 17 15 15 18 17 18 16 18 16 16 12 14 12 10 10 10 9 10 13 15 15 14 13 14 14 14 13 14 14 14 14 15 16 15 22 27 29 28
25 26 18 18 13 17 18 17 18 16 15 17 18 15 17 15 13 12 11 10 9 8 8 8 10 14 15 15 14 13 13 14 15 14 15 15 16 15 13 14 17 18 20 24
14 7 17 21 20 20 21 20 19 17 16 16 16 17 16 14 13 11 10 9 8 7 6 7 10 13 13 13 11 11 11 12 14 14 13 13 13 12 12 13 12 12 13 16
16 21 24 23 20 21 20 17 18 16 17 15 16 15 14 14 13 10 8 6 6 5 3 5 8 11 11 13 11 11 10 12 12 13 13 14 13 12 13 12 12 13 14 15
24 20 20 20 20 21 19 17 18 17 16 16 15 16 16 15 11 9 8 8 7 5 1 2 6 11 9 11 9 9 9 10 11 12 12 12 12 12 12 12 12 13 13 13
13 12 16 20 21 20 18 19 18 19 18 17 17 18 17 16 14 12 10 7 7 3 2 2 6 8 8 10 8 8 9 8 9 10 10 11 11 11 13 13 12 11 12 11
18 19 19 18 18 18 16 17 18 18 19 21 21 21 19 16 14 12 8 7 9 9 5 2 4 5 8 9 5 6 8 8 8 8 8 9 9 10 11 11 12 12 11 11
17 20 20 19 17 17 17 16 20 21 20 20 17 17 17 15 14 12 8 9 8 7 5 3 1 2 4 6 6 4 6 6 5 5 6 7 7 7 8 8 9 10 10 9
20 20 21 21 19 19 21 22 22 22 20 19 21 21 20 16 12 11 10 11 9 10 8 6 4 1 1 4 3 3 5 5 5 3 4 4 5 4 5 5 6 6 7 6
18 20 20 21 22 20 18 20 18 19 20 19 15 15 15 15 13 13 14 13 9 11 8 10 6 4 2 2 1 1 4 4 4 3 3 2 2 2 1 2 4 5 4 2
18 19 19 20 21 19 15 16 17 20 21 20 20 19 19 17 15 15 16 12 10 9 9 10 7 5 4 1 1 1 3 2 1 1 1 1 2 3 2 2 3 4 3 2
16 16 16 13 14 15 18 16 15 15 17 17 18 18 17 15 12 12 11 8 15 14 12 12 9 6 5 3 2 5 4 5 7 5 4 4 4 4 4 4 3 3 3 5
15 15 15 17 17 17 14 14 12 12 13 14 14 14 16 10 14 7 13 14 15 14 12 12 11 9 7 7 5 7 9 8 9 8 8 8 7 7 6 7 6 5 5 5
15 14 14 15 12 12 12 13 14 12 13 15 14 15 15 14 13 12 11 15 14 14 13 12 12 13 12 11 10 11 10 9 8 8 11 11 10 9 8 10 10 9 8 9
9 8 8 9 9 10 12 14 14 15 15 14 16 14 17 17 16 15 14 15 16 16 15 14 13 14 15 15 15 14 13 11 10 10 12 13 12 12 12 12 13 12 11 11
Wind_Direction
230 174 141 157 154 155 170 166 189 204 182 171 210 199 175 168 149 76 30 13 19 13 1 3 359 356 354 353 353 354 356 359 359 1 3 4 1 352 357 358 15 30 40 42
218 181 156 160 163 166 160 141 120 153 177 151 157 123 128 120 96 68 39 15 18 9 6 5 357 356 351 351 351 352 358 1 359 2 6 9 7 1 7 7 13 24 30 34
193 154 130 204 186 171 151 143 158 191 164 149 150 139 131 105 93 75 45 23 23 14 9 4 359 356 352 348 349 356 359 1 1 5 7 7 11 9 14 12 15 22 22 23
149 139 214 256 26 169 147 131 122 118 138 149 129 115 104 110 111 89 56 31 29 27 12 7 2 356 351 351 355 359 1 1 2 8 9 11 15 12 13 12 17 17 15 22
163 201 88 162 169 154 166 196 169 147 132 134 131 108 99 110 108 104 79 47 37 34 17 13 6 354 352 356 2 5 4 359 358 1 10 12 13 11 18 17 17 20 20 25
164 171 203 210 165 148 108 238 188 161 144 151 172 215 170 138 117 100 76 58 47 35 22 29 6 358 357 359 4 8 358 356 358 359 18 16 16 13 6 15 20 23 27 30
162 162 238 136 141 128 150 215 151 140 133 138 167 184 139 134 118 107 82 62 49 43 35 29 8 2 2 2 7 0 354 355 0 3 8 17 17 15 14 21 22 28 30 30
149 160 231 150 143 179 152 118 130 124 128 122 138 126 133 129 118 105 84 64 56 52 35 19 15 12 6 9 3 359 354 359 2 360 7 24 14 15 19 21 22 26 25 24
194 190 50 32 157 123 137 139 137 132 141 151 138 137 135 131 127 116 100 82 63 56 41 17 13 17 12 360 359 1 359 5 4 1 7 14 29 27 27 21 24 26 28 29
130 131 112 110 103 116 128 129 138 144 148 135 132 133 131 132 135 123 109 89 75 69 46 27 10 7 8 0 4 13 15 16 8 11 15 15 31 40 37 27 27 25 28 24
80 122 108 114 127 129 118 111 105 101 128 128 127 128 134 136 133 132 113 91 76 72 52 29 12 6 1 2 8 21 28 27 19 15 13 16 23 35 41 30 38 31 31 29
196 177 144 160 140 129 128 130 123 114 113 115 126 127 119 117 122 131 118 102 81 73 57 35 21 12 5 1 4 25 33 27 21 24 22 23 26 25 34 43 37 39 34 39
160 156 148 146 138 137 137 139 137 127 124 121 128 126 121 121 113 120 120 107 91 81 61 35 24 21 9 4 6 23 38 34 34 32 29 31 29 29 28 22 36 35 36 33
122 118 123 149 156 155 132 120 124 122 121 123 131 123 124 121 112 110 114 114 102 84 57 30 23 20 1 359 9 23 35 39 39 37 34 34 30 30 34 36 29 24 25 31
131 106 147 133 126 124 127 128 127 132 130 127 133 134 133 134 129 122 121 113 104 87 61 36 27 12 359 360 14 27 38 39 38 35 33 34 31 33 36 35 38 34 24 25
121 124 136 139 140 143 146 148 147 149 143 141 142 143 140 134 133 130 122 125 125 105 60 31 21 355 354 7 23 32 51 43 41 36 33 33 28 32 33 32 36 38 35 26
131 144 148 156 161 163 168 164 163 164 159 158 155 147 141 142 139 140 143 133 136 142 107 25 360 349 359 12 33 34 63 50 44 42 40 39 35 35 30 29 29 29 28 30
157 157 165 163 166 169 169 167 166 165 167 160 155 157 159 166 175 169 163 161 167 176 250 315 340 8 18 20 37 44 60 61 50 47 47 50 46 43 42 40 34 32 25 22
157 159 160 165 168 171 169 167 164 160 156 158 161 174 179 178 173 173 166 174 197 216 234 285 346 29 24 14 27 54 70 71 62 53 54 57 60 50 47 44 39 34 33 37
163 166 169 172 169 167 163 160 157 162 164 163 161 163 174 176 172 172 179 203 212 212 202 270 192 33 28 11 18 74 81 76 79 63 58 56 60 56 46 46 43 34 35 41
168 171 172 171 171 164 166 163 163 170 173 170 175 183 187 181 181 180 195 217 230 220 218 209 187 153 116 9 9 80 90 80 78 70 52 48 48 66 43 42 42 29 32 46
155 162 167 165 165 167 167 169 171 167 174 181 183 177 177 187 194 210 221 220 220 196 206 185 187 186 177 13 358 90 127 109 93 78 28 11 10 25 354 6 11 5 26 84
158 160 160 165 172 176 165 175 178 176 182 186 186 185 192 196 198 205 223 225 211 200 193 191 193 205 205 207 11 191 145 195 254 291 330 323 302 287 264 297 306 321 337 276
159 162 165 155 148 157 180 192 191 192 193 190 195 195 194 204 218 229 244 201 187 191 200 197 202 210 215 235 274 243 232 217 226 246 254 268 288 274 248 248 288 303 285 261
166 163 161 167 180 196 191 184 186 193 194 200 204 211 217 222 214 229 202 190 188 191 205 212 216 219 227 239 260 238 244 249 243 246 249 255 275 265 251 237 247 254 269 272
172 183 187 192 197 188 185 178 200 198 195 209 219 218 220 221 222 231 211 203 201 205 213 220 223 222 231 239 249 238 241 255 257 258 242 245 254 261 257 242 246 251 261 270
178 172 178 195 201 194 189 189 196 208 205 207 222 224 223 225 225 223 215 206 208 214 222 226 223 226 233 239 243 245 245 252 256 255 242 244 249 256 259 254 249 250 256 267